Preview of NWS' New Version of Forecast
This preview is not operational and should not be used for support decisions.
Latest weather observations around

Jackson, Hawkins Field Airport (KHKS)

Using English Units (Switch to International System of Units)
Date/ Time (CDT) Wind (mph) Vis. (mi) Weather Sky Cond. Temp (°F) Rel. Humidity Wind Chill (°F) Heat Index (°F) Pressure Precip. (in)
Air Dwpt 6 hour Altimeter (inHg) Sea level (inHg) 1 hr 3 hr 6 hr
Max Min
Jun 20 03:53 SW 6 10 Clear CLR 77 74     90%   79 29.89 29.86      
Jun 20 03:32 SW 5 10 Clear CLR 75 70     84%   76 29.89        
Jun 20 03:11 SSE 3 10 Thunderstorms FEW015 SCT021 74 71     91%   75 29.87        
Jun 20 03:01 SSE 3 10 Thunderstorms SCT015 BKN021 74 71     91%   75 29.87        
Jun 20 02:53 Calm 10 Mostly Cloudy BKN015 BKN021 74 71     91%   75 29.87 29.84      
Jun 20 02:47 Calm 10 Mostly Cloudy BKN015 75 70     83%   76 29.88        
Jun 20 02:25 Calm 10 Partly Cloudy SCT017 74 70     87%   75 29.87        
Jun 20 01:53 NNW 3 10 Cloudy BKN017 OVC025 76 69     79%   77 29.87 29.85      
Jun 20 01:37 NW 5 10 Mostly Cloudy SCT019 BKN025 77 71     82%   78 29.87        
Jun 20 00:53 W 8 10 Mostly Cloudy BKN031 BKN042 80 75     85%   85 29.85 29.82      
Jun 19 23:53 SSW 6 10 Clear CLR 81 74     79%   86 29.82 29.79      
Jun 19 22:53 SSW 6 10 Clear CLR 82 72     72%   87 29.81 29.79      
Jun 19 21:53 S 6 10 Clear CLR 81 73     77%   86 29.79 29.76      
Jun 19 20:53 S 7 10 Clear CLR 83 72     70%   88 29.78 29.75      
Jun 19 19:53 SSW 6 10 Clear CLR 84 73     70%   90 29.78 29.75      
Jun 19 18:53 SSW 7 10 Clear CLR 87 71     59%   93 29.78 29.75      
Jun 19 17:53 WSW 9 10 Mostly Clear FEW095 89 70     53%   94 29.8 29.78      
Jun 19 16:53 SW 8 10 Clear CLR 90 69     50%   95 29.81 29.78      
Jun 19 15:53 WSW 15 10 Clear CLR 91 69     49%   96 29.82 29.79      
Jun 19 14:53 SW 11 10 Mostly Clear FEW048 90 75     62%   101 29.82 29.79      
Jun 19 13:53 SSW 10 10 Clear CLR 86 76     72%   96 29.82 29.79      
Jun 19 12:53 ESE 7 10 Clear CLR 80 74     82%   85 29.82 29.8     0
Jun 19 11:53 WNW 6 10 Mostly Cloudy FEW055 SCT095 BKN110 76 71     85%   77 29.9 29.88 0    
Jun 19 11:00 WSW 14 10 Mostly Clear FEW022 86 76     72%   96 29.9        
Jun 19 10:53 WSW 9 10 Thunderstorms FEW022 SCT055 85 76     75%   94 29.9 29.88      
Jun 19 10:32 W 7 10 Thunderstorms FEW023 SCT050 SCT060 85 76     75%   94 29.91        
Jun 19 09:53 WSW 11 10 Partly Cloudy SCT049 84 74     72%   91 29.92 29.89      
Jun 19 08:53 SW 8 10 Clear CLR 82 75     79%   89 29.9 29.88      
Jun 19 07:53 SW 5 10 Clear CLR 78 74     87%   80 29.88 29.85      
Jun 19 06:53 Calm 7 Clear CLR 74 73     97%   76 29.88 29.85      
Jun 19 05:53 Calm 7 Clear CLR 73 72     96%   75 29.88 29.85      
Jun 19 04:53 SE 3 7 Mostly Clear FEW044 73 72     96%   75 29.86 29.83      
Jun 19 03:53 Calm 9 Mostly Cloudy BKN047 73 72     96%   75 29.87 29.84      
Jun 19 02:53 Calm 10 Clear CLR 74 72     94%   75 29.88 29.85      
Jun 19 01:53 Calm 10 Clear CLR 75 73     94%   77 29.88 29.85      
Jun 19 00:53 Calm 10 Clear CLR 74 73     97%   76 29.89 29.86      
Jun 18 23:53 Calm 10 Clear CLR 76 73     91%   77 29.89 29.86      
Jun 18 22:53 Calm 10 Clear CLR 77 73     88%   79 29.89 29.86      
Jun 18 21:53 Calm 10 Clear CLR 78 73     85%   80 29.88 29.85      
Jun 18 20:53 Calm 10 Clear CLR 79 73     82%   82 29.87 29.84      
Jun 18 19:53 W 6 10 Clear CLR 83 72     70%   88 29.86 29.83      
Jun 18 18:53 W 6 10 Clear CLR 86 70     59%   91 29.85 29.82      
Jun 18 17:53 WSW 7 10 Mostly Cloudy FEW045 BKN080 88 70     55%   93 29.85 29.83      
Jun 18 16:53 SW 7 10 Partly Cloudy SCT043 87 70     57%   92 29.86 29.84      
Jun 18 15:53 SW 8 10 Mostly Clear FEW041 87 71     59%   93 29.87 29.85      
Jun 18 14:53 W 9 10 Partly Cloudy SCT036 89 72     57%   96 29.9 29.87      
Jun 18 13:53 SW 10 10 Mostly Cloudy SCT032 SCT042 BKN050 85 73     68%   92 29.92 29.89      
Jun 18 12:53 W 8 10 Mostly Cloudy FEW028 SCT035 BKN047 85 73     68%   92 29.94 29.91     0
Jun 18 11:53 WSW 8 10 Mostly Clear FEW025 FEW049 84 73     70%   90 29.95 29.92      
Jun 18 10:53 W 6 10 Partly Cloudy FEW017 FEW030 SCT042 80 74     82%   85 29.96 29.93      
Jun 18 10:33 SW 5 10 Mostly Cloudy FEW013 SCT024 BKN043 80 74     82%   85 29.96        
Jun 18 10:18 W 8 10 Cloudy SCT013 BKN023 OVC043 77 73     88%   79 29.95        
Jun 18 10:11 SW 8 10 Cloudy SCT014 BKN030 OVC045 78 73     85%   80 29.95        
Jun 18 09:53 WSW 6 10 Cloudy FEW011 BKN024 OVC031 77 74     90%   79 29.95 29.93   0  
Jun 18 09:43 WSW 9 10 Cloudy SCT012 BKN028 OVC033 77 74     90%   79 29.95        
Jun 18 09:34 W 7 10 Cloudy FEW007 BKN012 OVC031 77 74     90%   79 29.95        
Jun 18 08:53 SW 5 10 Cloudy BKN007 OVC013 75 74     96%   77 29.95 29.93 0    
Jun 18 07:53 S 5 10 Cloudy OVC008 74 73     97%   76 29.94 29.92 0    
Jun 18 07:02 S 3 10 Cloudy SCT007 OVC014 74 73     97%   76 29.93        
Jun 18 06:53 Calm 10 Cloudy SCT009 OVC015 74 73     97%   76 29.93 29.91 0   0
Jun 18 05:53 S 5 10 Cloudy FEW011 BKN021 OVC034 74 73     97%   76 29.93 29.91      
Jun 18 05:46 S 5 10 Cloudy SCT012 SCT021 OVC034 74 73     97%   76 29.93        
Jun 18 05:25 S 3 10 Cloudy BKN012 OVC017 74 73     97%   76 29.93        
Jun 18 04:53 S 5 10 Mostly Cloudy BKN020 74 73     97%   76 29.93 29.91      
Jun 18 04:04 WSW 3 10 Cloudy SCT006 BKN019 OVC110 74 74     100%   76 29.93        
Jun 18 03:53 S 3 10 Mostly Cloudy BKN018 BKN110 74 74     100%   76 29.93 29.91   0  
Jun 18 02:53 SW 3 10 Mostly Clear FEW011 74 74     100%   76 29.92 29.9 0    
Jun 18 01:53 SE 6 7 Light Rain FEW080 OVC100 74 74     100%   76 29.94 29.91 0    
Jun 18 00:53 ESE 6 10 Mostly Clear FEW008 74 74     100%   76 29.94 29.92     0
Jun 17 23:53 SE 7 10 Mostly Cloudy BKN100 75 74     96%   77 29.95 29.92      
Jun 17 22:53 SE 6 10 Clear CLR 75 74     96%   77 29.95 29.93      
Jun 17 21:53 ESE 5 10 Clear CLR 75 74     96%   77 29.96 29.93   0  
Jun 17 20:53 SE 5 10 Mostly Clear FEW120 74 74     100%   76 29.94 29.91 0    
Jun 17 19:53 ESE 6 9 Light Rain SCT110 74 73     97%   76 29.93 29.9 0    
Jun 17 18:53 ESE 5 10 Partly Cloudy FEW046 FEW070 SCT110 75 73     94%   77 29.94 29.91     0
Jun 17 18:13 E 6 10 Mostly Clear FEW008 76 73     91%   77 29.94        
Jun 17 17:53 E 8 10 Clear CLR 76 72     88%   77 29.94 29.91      
Jun 17 17:26 E 5 10 Mostly Clear FEW009 76 73     91%   77 29.94        
Jun 17 16:53 E 6 10 Mostly Clear FEW100 76 73     91%   77 29.95 29.93 0    
Jun 17 16:28 NNE 5 10 Light Rain FEW005 SCT039 BKN055 74 72     94%   75 29.96   0    
Jun 17 15:53 NNE 5 10 Light Rain BKN050 BKN070 OVC110 73 72     96%   75 29.98 29.95 0 0  
Jun 17 14:53 W 8 9 Light Rain FEW045 SCT100 BKN120 71 70     96%   72 29.97 29.95 0    
Jun 17 14:40 SSW 6 9 Light Rain SCT030 BKN090 OVC110 71 71     100%   73 30   0    
Jun 17 14:33 WSW 9 2 Light Rain and Fog/Mist FEW023 BKN038 OVC110 71 71     100%   73 30   0    
Jun 17 14:30 W 10 0.75 Rain and Fog/Mist BKN031 BKN045 BKN100 71 71     100%   73 30   0    
Jun 17 14:23   0.75 Heavy Rain and Fog/Mist FEW014 BKN028 BKN045 72 71     97%   73 29.99   0    
Jun 17 14:20   2.5 Light Rain and Fog/Mist FEW011 SCT028 BKN045 73 71     94%   74 30   0    
Jun 17 14:13   9 Squalls FEW017 SCT039 BKN110 84 73     70%   90 29.99        
Jun 17 13:53 Calm 10 Mostly Clear FEW038 87 73     63%   95 29.94 29.91      
Jun 17 13:51 S 3 10 Mostly Clear FEW038 88 73     62%   96 29.94        
Jun 17 12:53 3 10 Mostly Clear FEW032 87 75     68%   97 29.96 29.93 0   0
Jun 17 12:11 SW 9 10 Mostly Cloudy SCT030 BKN041 85 74     70%   92 29.99        
Jun 17 12:02 SSW 8 10 Mostly Cloudy BKN027 BKN036 BKN049 85 74     70%   92 29.99        
Jun 17 11:53 SW 6 10 Mostly Cloudy FEW025 SCT030 BKN040 85 74     70%   92 29.99 29.96      
Jun 17 11:51 6 10 Mostly Cloudy SCT025 BKN037 BKN120 84 73     70%   91 29.99        
Jun 17 10:53 S 8 10 Mostly Cloudy BKN022 84 75     74%   92 29.98 29.96      
Jun 17 09:53 SSE 8 10 Mostly Clear FEW120 82 75     79%   89 29.97 29.94      
Jun 17 08:53 SSE 8 10 Mostly Clear FEW120 76 72     88%   77 29.98 29.96      
Jun 17 07:53 SSE 5 10 Clear CLR 73 72     96%   75 29.98 29.96      
Jun 17 06:53 SSE 5 10 Clear CLR 71 70     96%   72 29.95 29.93      
Jun 17 05:53 SE 7 10 Clear CLR 70 70     100%     29.93 29.91      
Jun 17 04:53 SE 6 10 Mostly Clear FEW003 70 70     100%     29.92 29.9      
May 15 03:53 Calm 9 Clear CLR 70 69     97%     29.93 29.91      
May 14 06:53 Calm 8 Clear CLR 69 67     93%     30.05 30.02      
May 13 05:53 E 3 6 Fog/Mist CLR 65 64     97%     30.08 30.06      
May 13 00:53 S 6 10 Clear CLR 72 65     79%   73 30.07 30.04      
May 12 16:53 SSW 7 10 Clear CLR 89 63     42%   90 30.04 30.02      
May 12 02:53 S 6 10 Clear CLR 67 61     81%     30.05 30.03      
Jun 11 16:53 S 14 10 Light Rain BKN038 BKN050 BKN060 82 71     69%   86 30.02 30 0    
Jun 11 11:53 SE 9 10 Mostly Clear FEW033 85 71     63%   90 30.08 30.05      
Jun 10 22:53 Calm 10 Clear CLR 75 65     71%   76 30.03 30.01      
Jun 10 18:53 SSE 10 10 Clear CLR 84 61     46%   84 29.97 29.95      
Jun 10 02:53 Calm 10 Clear CLR 65 61     87%     29.97 29.94      
Jun 08 09:53 N 7 10 Clear CLR 77 53     43%   76 29.99 29.96      
Jun 08 07:53 NE 5 10 Clear CLR 69 57     65%     29.98 29.95      
Jun 07 10:53 N 8 10 Clear CLR 78 62     58%   78 29.87 29.85      
Jun 06 05:08 Calm 2 Light Rain and Fog/Mist OVC002 73 71     94%   74 29.74   0    
Jun 06 03:04 Calm 8 Light Rain SCT005 BKN110 73 70     90%   74 29.73   0    
Jun 06 02:28 Calm 10 Mostly Cloudy FEW005 BKN018 BKN026 73 70     90%   74 29.74